| time (UTC) | temp F | wind direction | speed MPH | gust MPH | rain 1hr in | rain 24hr in | rain mn in | humidity % | barometer mb |
| 20260508102504 | 40 | 321 | 2.0 | 8.0 | 0.00 | 0.04 | 0.00 | 62 | 1032.2 |
| 20260508102003 | 39 | 326 | 2.0 | 5.0 | 0.00 | 0.04 | 0.00 | 62 | 1032.2 |
| 20260508101503 | 40 | 327 | 1.0 | 5.0 | 0.00 | 0.04 | 0.00 | 61 | 1032.3 |
| 20260508101003 | 41 | 342 | 1.0 | 5.0 | 0.00 | 0.04 | 0.00 | 59 | 1032.2 |
| 20260508100503 | 41 | 332 | 2.0 | 6.0 | 0.00 | 0.04 | 0.00 | 58 | 1032.3 |
| 20260508100003 | 41 | 322 | 3.0 | 7.0 | 0.00 | 0.04 | 0.00 | 58 | 1032.3 |
| 20260508095503 | 41 | 318 | 3.0 | 8.0 | 0.00 | 0.04 | 0.00 | 59 | 1032.3 |
| 20260508095217 | 41 | 319 | 3.0 | 8.0 | 0.00 | 0.04 | 0.00 | 60 | 1032.2 |
| 20260508094503 | 39 | 330 | 2.0 | 6.0 | 0.00 | 0.04 | 0.00 | 62 | 1032.2 |
| 20260508094003 | 39 | 346 | 2.0 | 3.0 | 0.00 | 0.04 | 0.00 | 63 | 1032.3 |
| 20260508093503 | 39 | 341 | 1.0 | 3.0 | 0.00 | 0.04 | 0.00 | 62 | 1032.4 |
| 20260508093003 | 39 | 311 | 1.0 | 4.0 | 0.00 | 0.04 | 0.00 | 61 | 1032.5 |
| 20260508092503 | 40 | 300 | 1.0 | 4.0 | 0.00 | 0.04 | 0.00 | 61 | 1032.4 |
| 20260508092220 | 40 | 273 | 0.0 | 4.0 | 0.00 | 0.04 | 0.00 | 61 | 1032.5 |
| 20260508091503 | 39 | 288 | 1.0 | 3.0 | 0.00 | 0.04 | 0.00 | 61 | 1032.5 |
| 20260508091003 | 39 | 292 | 1.0 | 4.0 | 0.00 | 0.04 | 0.00 | 61 | 1032.5 |
| 20260508090504 | 39 | 310 | 1.0 | 4.0 | 0.00 | 0.04 | 0.00 | 61 | 1032.5 |
| 20260508090003 | 39 | 322 | 2.0 | 4.0 | 0.00 | 0.04 | 0.00 | 61 | 1032.5 |
| 20260508085503 | 40 | 318 | 1.0 | 4.0 | 0.00 | 0.04 | 0.00 | 60 | 1032.5 |
| 20260508085218 | 40 | 308 | 1.0 | 3.0 | 0.00 | 0.04 | 0.00 | 58 | 1032.5 |
| 20260508084721 | 41 | 314 | 1.0 | 4.0 | 0.00 | 0.04 | 0.00 | 58 | 1032.6 |
| 20260508084003 | 41 | 320 | 1.0 | 4.0 | 0.00 | 0.04 | 0.00 | 57 | 1032.6 |
| 20260508083503 | 41 | 318 | 2.0 | 4.0 | 0.00 | 0.04 | 0.00 | 56 | 1032.6 |
| 20260508083003 | 42 | 322 | 2.0 | 4.0 | 0.00 | 0.04 | 0.00 | 55 | 1032.6 |
| 20260508082503 | 42 | 326 | 2.0 | 5.0 | 0.00 | 0.04 | 0.00 | 55 | 1032.6 |
| 20260508082221 | 42 | 324 | 3.0 | 8.0 | 0.00 | 0.04 | 0.00 | 55 | 1032.7 |
| 20260508081504 | 42 | 325 | 3.0 | 8.0 | 0.00 | 0.04 | 0.00 | 55 | 1032.7 |
| 20260508081004 | 41 | 327 | 2.0 | 4.0 | 0.00 | 0.04 | 0.00 | 56 | 1032.7 |
| 20260508080503 | 42 | 332 | 1.0 | 4.0 | 0.00 | 0.04 | 0.00 | 54 | 1032.7 |
| 20260508080218 | 42 | 338 | 1.0 | 4.0 | 0.00 | 0.04 | 0.00 | 54 | 1032.7 |
| 20260508075503 | 44 | 336 | 1.0 | 5.0 | 0.00 | 0.04 | 0.00 | 50 | 1032.9 |
| 20260508075003 | 44 | 325 | 1.0 | 5.0 | 0.00 | 0.04 | 0.00 | 50 | 1032.9 |
| 20260508074722 | 44 | 318 | 2.0 | 8.0 | 0.00 | 0.04 | 0.00 | 49 | 1032.9 |
| 20260508074003 | 44 | 317 | 4.0 | 10.0 | 0.00 | 0.04 | 0.00 | 50 | 1032.9 |
| 20260508073503 | 44 | 319 | 4.0 | 9.0 | 0.00 | 0.04 | 0.00 | 50 | 1033.0 |
| 20260508073003 | 43 | 315 | 4.0 | 8.0 | 0.00 | 0.04 | 0.00 | 52 | 1033.1 |
| 20260508072503 | 42 | 313 | 2.0 | 8.0 | 0.00 | 0.04 | 0.00 | 52 | 1033.1 |
| 20260508072221 | 42 | 318 | 2.0 | 8.0 | 0.00 | 0.04 | 0.00 | 52 | 1033.2 |
| 20260508071503 | 43 | 324 | 2.0 | 5.0 | 0.00 | 0.04 | 0.00 | 52 | 1033.3 |
| 20260508071217 | 44 | 325 | 2.0 | 5.0 | 0.00 | 0.04 | 0.00 | 50 | 1033.3 |
| 20260508070720 | 45 | 318 | 3.0 | 8.0 | 0.00 | 0.04 | 0.00 | 49 | 1033.3 |
| 20260508070004 | 45 | 315 | 4.0 | 8.0 | 0.00 | 0.04 | 0.00 | 48 | 1033.2 |
| 20260508065503 | 45 | 311 | 4.0 | 10.0 | 0.00 | 0.04 | 0.00 | 47 | 1033.2 |
| 20260508065004 | 45 | 311 | 4.0 | 10.0 | 0.00 | 0.04 | 0.00 | 47 | 1033.2 |
| 20260508064503 | 45 | 317 | 4.0 | 8.0 | 0.00 | 0.04 | 0.00 | 48 | 1033.2 |
| 20260508064220 | 45 | 316 | 3.0 | 9.0 | 0.00 | 0.04 | 0.00 | 48 | 1033.3 |
| 20260508063503 | 45 | 317 | 3.0 | 10.0 | 0.00 | 0.04 | 0.00 | 48 | 1033.3 |
| 20260508063003 | 44 | 316 | 3.0 | 10.0 | 0.00 | 0.04 | 0.00 | 49 | 1033.1 |
| 20260508062503 | 44 | 311 | 2.0 | 7.0 | 0.00 | 0.04 | 0.00 | 49 | 1033.2 |
| 20260508062003 | 44 | 318 | 2.0 | 6.0 | 0.00 | 0.04 | 0.00 | 51 | 1033.1 |
| 20260508061720 | 44 | 318 | 3.0 | 8.0 | 0.00 | 0.04 | 0.00 | 50 | 1033.1 |
| 20260508061218 | 44 | 307 | 3.0 | 8.0 | 0.00 | 0.04 | 0.00 | 51 | 1033.1 |
| 20260508060503 | 42 | 312 | 2.0 | 4.0 | 0.00 | 0.04 | 0.00 | 54 | 1033.2 |
| 20260508060003 | 41 | 321 | 1.0 | 4.0 | 0.00 | 0.04 | 0.00 | 56 | 1033.3 |
| 20260508055503 | 42 | 297 | 1.0 | 4.0 | 0.00 | 0.04 | 0.04 | 55 | 1033.4 |
| 20260508055220 | 42 | 291 | 1.0 | 3.0 | 0.00 | 0.04 | 0.04 | 54 | 1033.4 |
| 20260508054503 | 43 | 356 | 2.0 | 5.0 | 0.00 | 0.04 | 0.04 | 50 | 1033.3 |
| 20260508054003 | 43 | 356 | 2.0 | 5.0 | 0.00 | 0.04 | 0.04 | 51 | 1033.4 |
| 20260508053503 | 44 | 328 | 1.0 | 4.0 | 0.00 | 0.04 | 0.04 | 51 | 1033.3 |
| 20260508053003 | 44 | 327 | 1.0 | 4.0 | 0.00 | 0.04 | 0.04 | 49 | 1033.3 |
| 20260508052503 | 45 | 346 | 1.0 | 4.0 | 0.00 | 0.04 | 0.04 | 49 | 1033.3 |
| 20260508052003 | 45 | 85 | 1.0 | 4.0 | 0.00 | 0.04 | 0.04 | 47 | 1033.0 |
| 20260508051503 | 45 | 77 | 1.0 | 4.0 | 0.00 | 0.04 | 0.04 | 46 | 1032.9 |
| 20260508051003 | 46 | 11 | 2.0 | 8.0 | 0.00 | 0.04 | 0.04 | 46 | 1032.9 |
| 20260508050717 | 46 | 330 | 2.0 | 8.0 | 0.00 | 0.04 | 0.04 | 47 | 1032.9 |
| 20260508050003 | 46 | 323 | 4.0 | 8.0 | 0.00 | 0.04 | 0.04 | 47 | 1033.1 |
| 20260508045503 | 46 | 326 | 5.0 | 10.0 | 0.00 | 0.04 | 0.04 | 47 | 1033.2 |
| 20260508045003 | 45 | 323 | 4.0 | 10.0 | 0.00 | 0.04 | 0.04 | 47 | 1033.2 |
| 20260508044719 | 44 | 325 | 3.0 | 9.0 | 0.00 | 0.04 | 0.04 | 49 | 1033.2 |
| 20260508044221 | 43 | 344 | 2.0 | 5.0 | 0.00 | 0.04 | 0.04 | 51 | 1033.2 |
| 20260508043503 | 42 | 35 | 1.0 | 5.0 | 0.00 | 0.04 | 0.04 | 52 | 1033.3 |
| 20260508043003 | 42 | 39 | 1.0 | 4.0 | 0.00 | 0.04 | 0.04 | 52 | 1033.4 |
| 20260508042503 | 42 | 355 | 1.0 | 4.0 | 0.00 | 0.04 | 0.04 | 54 | 1033.3 |
| 20260508042003 | 42 | 4 | 1.0 | 4.0 | 0.00 | 0.04 | 0.04 | 56 | 1033.5 |
| 20260508041504 | 42 | 9 | 1.0 | 3.0 | 0.00 | 0.04 | 0.04 | 55 | 1033.5 |
| 20260508041219 | 42 | 5 | 1.0 | 3.0 | 0.00 | 0.04 | 0.04 | 53 | 1033.4 |
| 20260508040503 | 44 | 332 | 2.0 | 8.0 | 0.00 | 0.04 | 0.04 | 54 | 1033.5 |
| 20260508040003 | 45 | 324 | 2.0 | 8.0 | 0.00 | 0.04 | 0.04 | 51 | 1033.4 |
| 20260508035503 | 45 | 336 | 1.0 | 8.0 | 0.00 | 0.04 | 0.04 | 47 | 1033.4 |
| 20260508035003 | 45 | 9 | 2.0 | 4.0 | 0.00 | 0.04 | 0.04 | 48 | 1033.4 |
| 20260508034503 | 46 | 69 | 2.0 | 6.0 | 0.00 | 0.04 | 0.04 | 48 | 1033.4 |
| 20260508034003 | 46 | 110 | 1.0 | 6.0 | 0.00 | 0.04 | 0.04 | 45 | 1033.3 |
| 20260508033503 | 47 | 218 | 1.0 | 4.0 | 0.00 | 0.04 | 0.04 | 45 | 1033.3 |
| 20260508033218 | 47 | 244 | 1.0 | 4.0 | 0.00 | 0.04 | 0.04 | 45 | 1033.3 |
| 20260508032503 | 48 | 287 | 3.0 | 9.0 | 0.00 | 0.04 | 0.04 | 43 | 1033.2 |
| 20260508032003 | 48 | 307 | 3.0 | 13.0 | 0.00 | 0.04 | 0.04 | 43 | 1033.1 |
| 20260508031503 | 48 | 314 | 4.0 | 13.0 | 0.00 | 0.04 | 0.04 | 43 | 1033.1 |
| 20260508031003 | 48 | 320 | 4.0 | 12.0 | 0.00 | 0.04 | 0.04 | 43 | 1033.0 |
| 20260508030503 | 47 | 12 | 3.0 | 10.0 | 0.00 | 0.04 | 0.04 | 43 | 1032.9 |
| 20260508030221 | 47 | 67 | 2.0 | 10.0 | 0.00 | 0.04 | 0.04 | 44 | 1032.9 |
| 20260508025503 | 47 | 273 | 1.0 | 6.0 | 0.00 | 0.04 | 0.04 | 44 | 1032.7 |
| 20260508025003 | 48 | 265 | 1.0 | 3.0 | 0.00 | 0.04 | 0.04 | 43 | 1032.6 |
| 20260508024503 | 48 | 89 | 1.0 | 5.0 | 0.00 | 0.04 | 0.04 | 43 | 1032.5 |
| 20260508024218 | 48 | 77 | 1.0 | 5.0 | 0.00 | 0.04 | 0.04 | 43 | 1032.5 |
| 20260508023503 | 48 | 76 | 1.0 | 3.0 | 0.00 | 0.04 | 0.04 | 42 | 1032.4 |
| 20260508023003 | 48 | 293 | 1.0 | 3.0 | 0.00 | 0.04 | 0.04 | 41 | 1032.5 |
| 20260508022503 | 49 | 304 | 2.0 | 8.0 | 0.00 | 0.04 | 0.04 | 40 | 1032.4 |
| 20260508022003 | 49 | 318 | 3.0 | 9.0 | 0.00 | 0.04 | 0.04 | 40 | 1032.3 |
| 20260508021503 | 49 | 317 | 3.0 | 9.0 | 0.00 | 0.04 | 0.04 | 40 | 1032.3 |
| 20260508021003 | 49 | 321 | 3.0 | 9.0 | 0.00 | 0.04 | 0.04 | 40 | 1032.3 |
| 20260508020503 | 49 | 335 | 3.0 | 9.0 | 0.00 | 0.04 | 0.04 | 40 | 1032.3 |
| 20260508020004 | 48 | 335 | 2.0 | 5.0 | 0.00 | 0.04 | 0.04 | 40 | 1032.3 |
| 20260508015503 | 48 | 331 | 1.0 | 4.0 | 0.00 | 0.04 | 0.04 | 43 | 1032.2 |
| 20260508015217 | 48 | 330 | 2.0 | 5.0 | 0.00 | 0.04 | 0.04 | 40 | 1032.1 |
| 20260508014720 | 48 | 303 | 2.0 | 7.0 | 0.00 | 0.04 | 0.04 | 42 | 1032.2 |
| 20260508014003 | 49 | 305 | 2.0 | 5.0 | 0.00 | 0.04 | 0.04 | 39 | 1032.2 |
| 20260508013503 | 50 | 298 | 2.0 | 7.0 | 0.00 | 0.04 | 0.04 | 40 | 1032.1 |
| 20260508013003 | 50 | 287 | 3.0 | 9.0 | 0.00 | 0.04 | 0.04 | 37 | 1032.0 |
| 20260508012503 | 51 | 295 | 4.0 | 9.0 | 0.00 | 0.04 | 0.04 | 35 | 1032.1 |
| 20260508012220 | 51 | 296 | 4.0 | 9.0 | 0.00 | 0.04 | 0.04 | 36 | 1032.1 |
| 20260508011718 | 51 | 306 | 4.0 | 12.0 | 0.00 | 0.04 | 0.04 | 35 | 1032.0 |
| 20260508011003 | 52 | 308 | 4.0 | 9.0 | 0.00 | 0.04 | 0.04 | 35 | 1032.0 |
| 20260508010503 | 52 | 309 | 5.0 | 13.0 | 0.00 | 0.04 | 0.04 | 34 | 1031.9 |
| 20260508010217 | 52 | 310 | 5.0 | 13.0 | 0.00 | 0.04 | 0.04 | 34 | 1031.9 |
| 20260508005503 | 53 | 316 | 4.0 | 8.0 | 0.00 | 0.05 | 0.04 | 34 | 1031.8 |
| 20260508005003 | 53 | 318 | 3.0 | 8.0 | 0.00 | 0.05 | 0.04 | 35 | 1032.0 |
| 20260508004503 | 53 | 301 | 3.0 | 8.0 | 0.00 | 0.05 | 0.04 | 35 | 1031.9 |
| 20260508004219 | 53 | 296 | 4.0 | 15.0 | 0.00 | 0.05 | 0.04 | 38 | 1031.9 |
| 20260508003722 | 53 | 304 | 4.0 | 15.0 | 0.00 | 0.05 | 0.04 | 35 | 1032.0 |
| 20260508003220 | 53 | 313 | 2.0 | 15.0 | 0.00 | 0.05 | 0.04 | 37 | 1032.1 |
| 20260508002503 | 52 | 309 | 2.0 | 6.0 | 0.00 | 0.06 | 0.04 | 39 | 1032.1 |
| 20260508002003 | 52 | 281 | 3.0 | 11.0 | 0.00 | 0.06 | 0.04 | 39 | 1032.0 |
| 20260508001503 | 52 | 290 | 5.0 | 15.0 | 0.00 | 0.06 | 0.04 | 41 | 1032.0 |
| 20260508001217 | 52 | 300 | 5.0 | 15.0 | 0.00 | 0.06 | 0.04 | 38 | 1032.0 |
| 20260508000720 | 53 | 289 | 5.0 | 12.0 | 0.00 | 0.07 | 0.04 | 39 | 1032.1 |
| 20260508000003 | 53 | 261 | 5.0 | 11.0 | 0.00 | 0.07 | 0.04 | 37 | 1032.0 |
| 20260507235503 | 53 | 264 | 5.0 | 11.0 | 0.00 | 0.07 | 0.04 | 39 | 1032.0 |
| 20260507235003 | 52 | 269 | 5.0 | 11.0 | 0.00 | 0.07 | 0.04 | 40 | 1032.1 |
| 20260507234503 | 53 | 283 | 5.0 | 11.0 | 0.00 | 0.07 | 0.04 | 38 | 1032.1 |
| 20260507234003 | 54 | 284 | 6.0 | 15.0 | 0.00 | 0.07 | 0.04 | 38 | 1031.9 |
| 20260507233717 | 54 | 280 | 5.0 | 15.0 | 0.00 | 0.08 | 0.04 | 38 | 1031.9 |
| 20260507233220 | 54 | 272 | 5.0 | 11.0 | 0.00 | 0.08 | 0.04 | 38 | 1032.0 |
| 20260507232503 | 53 | 265 | 4.0 | 12.0 | 0.00 | 0.08 | 0.04 | 40 | 1031.9 |
| 20260507232003 | 53 | 264 | 4.0 | 11.0 | 0.00 | 0.08 | 0.04 | 39 | 1031.9 |
| 20260507231503 | 53 | 289 | 5.0 | 12.0 | 0.00 | 0.09 | 0.04 | 40 | 1032.1 |
| 20260507231003 | 52 | 316 | 6.0 | 16.0 | 0.00 | 0.09 | 0.04 | 42 | 1031.9 |
| 20260507230503 | 51 | 316 | 6.0 | 16.0 | 0.00 | 0.09 | 0.04 | 42 | 1031.9 |
| 20260507230003 | 50 | 318 | 6.0 | 16.0 | 0.00 | 0.09 | 0.04 | 44 | 1031.9 |
| 20260507225503 | 50 | 320 | 7.0 | 17.0 | 0.00 | 0.09 | 0.04 | 42 | 1031.9 |
| 20260507225219 | 50 | 319 | 7.0 | 17.0 | 0.00 | 0.09 | 0.04 | 42 | 1031.9 |
| 20260507224717 | 51 | 304 | 6.0 | 17.0 | 0.00 | 0.10 | 0.04 | 40 | 1032.0 |
| 20260507224220 | 52 | 291 | 5.0 | 13.0 | 0.00 | 0.10 | 0.04 | 41 | 1032.0 |
| 20260507223503 | 52 | 312 | 5.0 | 20.0 | 0.00 | 0.10 | 0.04 | 40 | 1032.0 |
| 20260507223003 | 53 | 282 | 4.0 | 15.0 | 0.00 | 0.10 | 0.04 | 41 | 1032.0 |
| 20260507222503 | 53 | 284 | 6.0 | 15.0 | 0.00 | 0.11 | 0.04 | 40 | 1031.9 |
| 20260507222003 | 53 | 311 | 6.0 | 14.0 | 0.00 | 0.11 | 0.04 | 40 | 1031.9 |
| 20260507221504 | 52 | 314 | 6.0 | 14.0 | 0.00 | 0.11 | 0.04 | 41 | 1032.0 |
| 20260507221004 | 52 | 311 | 6.0 | 14.0 | 0.00 | 0.12 | 0.04 | 42 | 1032.1 |
| 20260507220721 | 51 | 315 | 7.0 | 14.0 | 0.00 | 0.12 | 0.04 | 42 | 1032.1 |
| 20260507220004 | 51 | 315 | 6.0 | 13.0 | 0.00 | 0.13 | 0.04 | 41 | 1032.2 |
| 20260507215717 | 52 | 312 | 6.0 | 13.0 | 0.00 | 0.13 | 0.04 | 40 | 1032.2 |
| 20260507215003 | 52 | 309 | 7.0 | 15.0 | 0.00 | 0.14 | 0.04 | 41 | 1032.3 |
| 20260507214503 | 53 | 303 | 7.0 | 16.0 | 0.00 | 0.15 | 0.04 | 38 | 1032.4 |
| 20260507214003 | 54 | 263 | 5.0 | 16.0 | 0.00 | 0.15 | 0.04 | 39 | 1032.4 |
| 20260507213503 | 53 | 217 | 3.0 | 10.0 | 0.00 | 0.16 | 0.04 | 39 | 1032.4 |
| 20260507213003 | 53 | 165 | 3.0 | 9.0 | 0.00 | 0.17 | 0.04 | 41 | 1032.4 |
| 20260507212503 | 53 | 156 | 4.0 | 10.0 | 0.00 | 0.17 | 0.04 | 40 | 1032.5 |
| 20260507212003 | 52 | 204 | 4.0 | 14.0 | 0.00 | 0.18 | 0.04 | 42 | 1032.6 |
| 20260507211503 | 52 | 259 | 4.0 | 14.0 | 0.00 | 0.19 | 0.04 | 39 | 1032.7 |
| 20260507211003 | 53 | 272 | 3.0 | 12.0 | 0.00 | 0.19 | 0.04 | 38 | 1032.7 |
| 20260507210716 | 53 | 274 | 2.0 | 6.0 | 0.00 | 0.20 | 0.04 | 40 | 1032.7 |
| 20260507210003 | 52 | 286 | 2.0 | 6.0 | 0.00 | 0.21 | 0.04 | 43 | 1032.9 |
| 20260507205503 | 52 | 317 | 3.0 | 10.0 | 0.00 | 0.22 | 0.04 | 41 | 1033.0 |
| 20260507205220 | 52 | 281 | 4.0 | 10.0 | 0.00 | 0.22 | 0.04 | 39 | 1033.0 |
| 20260507204503 | 52 | 256 | 4.0 | 10.0 | 0.00 | 0.23 | 0.04 | 40 | 1033.1 |
| 20260507204003 | 52 | 291 | 4.0 | 11.0 | 0.00 | 0.24 | 0.04 | 41 | 1033.1 |
| 20260507203503 | 51 | 289 | 4.0 | 11.0 | 0.00 | 0.25 | 0.04 | 42 | 1033.2 |
| 20260507203003 | 51 | 265 | 4.0 | 12.0 | 0.00 | 0.25 | 0.04 | 41 | 1033.3 |
| 20260507202503 | 51 | 273 | 4.0 | 12.0 | 0.00 | 0.25 | 0.04 | 41 | 1033.4 |
| 20260507202003 | 52 | 180 | 3.0 | 9.0 | 0.00 | 0.26 | 0.04 | 40 | 1033.3 |
| 20260507201503 | 51 | 145 | 3.0 | 9.0 | 0.00 | 0.26 | 0.04 | 41 | 1033.4 |
| 20260507201003 | 51 | 162 | 2.0 | 9.0 | 0.00 | 0.27 | 0.04 | 45 | 1033.4 |
| 20260507200503 | 50 | 274 | 2.0 | 9.0 | 0.00 | 0.27 | 0.04 | 46 | 1033.4 |
| 20260507200003 | 49 | 271 | 3.0 | 9.0 | 0.00 | 0.27 | 0.04 | 42 | 1033.4 |
| 20260507195503 | 49 | 269 | 3.0 | 9.0 | 0.00 | 0.28 | 0.04 | 41 | 1033.5 |
| 20260507195221 | 50 | 282 | 3.0 | 7.0 | 0.00 | 0.28 | 0.04 | 43 | 1033.5 |
| 20260507194503 | 49 | 264 | 4.0 | 8.0 | 0.00 | 0.29 | 0.04 | 42 | 1033.6 |
| 20260507194003 | 49 | 257 | 3.0 | 8.0 | 0.00 | 0.29 | 0.04 | 41 | 1033.7 |
| 20260507193503 | 49 | 236 | 4.0 | 9.0 | 0.00 | 0.29 | 0.04 | 42 | 1033.6 |
| 20260507193003 | 49 | 242 | 4.0 | 9.0 | 0.00 | 0.30 | 0.04 | 40 | 1033.7 |
| 20260507192503 | 49 | 241 | 3.0 | 9.0 | 0.00 | 0.30 | 0.04 | 42 | 1033.7 |
| 20260507192003 | 48 | 242 | 3.0 | 7.0 | 0.00 | 0.30 | 0.04 | 42 | 1033.7 |
| 20260507191503 | 48 | 262 | 3.0 | 10.0 | 0.00 | 0.30 | 0.04 | 41 | 1033.8 |
| 20260507191003 | 48 | 273 | 5.0 | 10.0 | 0.00 | 0.31 | 0.04 | 42 | 1033.8 |
| 20260507190503 | 48 | 279 | 4.0 | 10.0 | 0.00 | 0.31 | 0.04 | 42 | 1033.9 |
| 20260507190004 | 48 | 276 | 3.0 | 7.0 | 0.00 | 0.31 | 0.04 | 43 | 1034.0 |
| 20260507185503 | 47 | 262 | 4.0 | 10.0 | 0.00 | 0.31 | 0.04 | 45 | 1034.0 |
| 20260507185003 | 47 | 260 | 4.0 | 10.0 | 0.00 | 0.31 | 0.04 | 42 | 1034.0 |
| 20260507184503 | 47 | 273 | 3.0 | 9.0 | 0.00 | 0.31 | 0.04 | 44 | 1034.0 |
| 20260507184218 | 46 | 273 | 4.0 | 9.0 | 0.00 | 0.31 | 0.04 | 44 | 1034.0 |
| 20260507183503 | 46 | 274 | 3.0 | 8.0 | 0.00 | 0.32 | 0.04 | 42 | 1034.1 |
| 20260507183003 | 46 | 265 | 3.0 | 8.0 | 0.00 | 0.32 | 0.04 | 45 | 1034.1 |
| 20260507182717 | 46 | 265 | 4.0 | 10.0 | 0.00 | 0.32 | 0.04 | 47 | 1034.1 |
| 20260507182003 | 45 | 281 | 5.0 | 10.0 | 0.00 | 0.32 | 0.04 | 45 | 1034.2 |
| 20260507181717 | 45 | 264 | 5.0 | 10.0 | 0.00 | 0.32 | 0.04 | 45 | 1034.4 |
| 20260507181003 | 44 | 253 | 4.0 | 9.0 | 0.00 | 0.32 | 0.04 | 49 | 1034.3 |
| 20260507180503 | 44 | 258 | 5.0 | 10.0 | 0.00 | 0.32 | 0.04 | 48 | 1034.4 |
| 20260507180221 | 44 | 261 | 5.0 | 10.0 | 0.00 | 0.32 | 0.04 | 49 | 1034.4 |
| 20260507175503 | 43 | 258 | 5.0 | 11.0 | 0.01 | 0.32 | 0.04 | 51 | 1034.5 |
| 20260507175003 | 43 | 256 | 5.0 | 11.0 | 0.01 | 0.32 | 0.04 | 52 | 1034.5 |
| 20260507174503 | 42 | 266 | 5.0 | 10.0 | 0.01 | 0.32 | 0.04 | 51 | 1034.5 |
| 20260507174003 | 42 | 266 | 5.0 | 10.0 | 0.01 | 0.32 | 0.04 | 53 | 1034.7 |
| 20260507173503 | 42 | 257 | 5.0 | 11.0 | 0.01 | 0.32 | 0.04 | 55 | 1034.7 |
| 20260507173004 | 42 | 260 | 6.0 | 11.0 | 0.01 | 0.32 | 0.04 | 54 | 1034.8 |
| 20260507172504 | 41 | 268 | 6.0 | 10.0 | 0.02 | 0.32 | 0.04 | 54 | 1034.8 |
| 20260507172003 | 42 | 281 | 5.0 | 10.0 | 0.02 | 0.32 | 0.04 | 54 | 1034.9 |
| 20260507171503 | 42 | 281 | 4.0 | 11.0 | 0.02 | 0.32 | 0.04 | 56 | 1034.9 |
| 20260507171003 | 41 | 261 | 5.0 | 11.0 | 0.03 | 0.32 | 0.04 | 57 | 1034.9 |
| 20260507170503 | 41 | 279 | 6.0 | 12.0 | 0.03 | 0.32 | 0.04 | 54 | 1034.8 |
| 20260507170217 | 41 | 297 | 6.0 | 14.0 | 0.03 | 0.32 | 0.04 | 55 | 1035.0 |
| 20260507165503 | 40 | 307 | 6.0 | 14.0 | 0.03 | 0.31 | 0.03 | 56 | 1035.1 |
| 20260507165003 | 40 | 301 | 6.0 | 14.0 | 0.03 | 0.31 | 0.03 | 57 | 1035.1 |
| 20260507164503 | 40 | 305 | 8.0 | 20.0 | 0.03 | 0.31 | 0.03 | 54 | 1035.2 |
| 20260507164003 | 39 | 299 | 8.0 | 20.0 | 0.03 | 0.31 | 0.03 | 52 | 1035.0 |
| 20260507163503 | 39 | 292 | 7.0 | 13.0 | 0.03 | 0.31 | 0.03 | 57 | 1035.1 |
| 20260507163003 | 39 | 302 | 6.0 | 12.0 | 0.03 | 0.31 | 0.03 | 54 | 1035.0 |
| 20260507162503 | 39 | 291 | 5.0 | 11.0 | 0.02 | 0.30 | 0.02 | 58 | 1035.1 |
| 20260507162003 | 39 | 276 | 6.0 | 11.0 | 0.02 | 0.30 | 0.02 | 58 | 1035.0 |
| 20260507161719 | 39 | 273 | 6.0 | 11.0 | 0.02 | 0.30 | 0.02 | 57 | 1035.1 |
| 20260507161217 | 39 | 286 | 5.0 | 10.0 | 0.01 | 0.29 | 0.01 | 57 | 1035.1 |
| 20260507160503 | 39 | 293 | 4.0 | 11.0 | 0.01 | 0.29 | 0.01 | 57 | 1035.0 |
| 20260507160003 | 38 | 287 | 6.0 | 14.0 | 0.01 | 0.29 | 0.01 | 54 | 1035.1 |
| 20260507155503 | 38 | 294 | 6.0 | 14.0 | 0.00 | 0.28 | 0.00 | 52 | 1035.0 |
| 20260507155003 | 38 | 312 | 7.0 | 13.0 | 0.00 | 0.28 | 0.00 | 52 | 1034.9 |
| 20260507154503 | 38 | 318 | 8.0 | 14.0 | 0.00 | 0.28 | 0.00 | 49 | 1035.0 |
| 20260507154003 | 38 | 307 | 6.0 | 14.0 | 0.00 | 0.28 | 0.00 | 50 | 1035.0 |
| 20260507153504 | 38 | 300 | 6.0 | 14.0 | 0.00 | 0.28 | 0.00 | 52 | 1035.0 |
| 20260507153003 | 38 | 305 | 6.0 | 14.0 | 0.00 | 0.28 | 0.00 | 51 | 1035.0 |
| 20260507152503 | 38 | 304 | 6.0 | 13.0 | 0.00 | 0.28 | 0.00 | 52 | 1035.0 |
| 20260507152003 | 37 | 305 | 6.0 | 13.0 | 0.00 | 0.28 | 0.00 | 50 | 1035.0 |
| 20260507151719 | 37 | 309 | 6.0 | 12.0 | 0.00 | 0.28 | 0.00 | 49 | 1035.0 |
| 20260507151003 | 37 | 310 | 7.0 | 14.0 | 0.00 | 0.28 | 0.00 | 51 | 1035.0 |
| 20260507150503 | 36 | 310 | 8.0 | 14.0 | 0.00 | 0.28 | 0.00 | 51 | 1035.0 |
| 20260507150003 | 36 | 311 | 9.0 | 13.0 | 0.00 | 0.28 | 0.00 | 49 | 1035.0 |
| 20260507145503 | 36 | 312 | 8.0 | 13.0 | 0.00 | 0.28 | 0.00 | 49 | 1034.9 |
| 20260507145003 | 36 | 315 | 8.0 | 14.0 | 0.00 | 0.28 | 0.00 | 50 | 1034.9 |
| 20260507144503 | 36 | 320 | 7.0 | 14.0 | 0.00 | 0.28 | 0.00 | 49 | 1034.8 |
| 20260507144003 | 35 | 320 | 6.0 | 11.0 | 0.00 | 0.28 | 0.00 | 51 | 1034.8 |
| 20260507143718 | 35 | 317 | 6.0 | 13.0 | 0.00 | 0.28 | 0.00 | 51 | 1034.9 |
| 20260507143003 | 35 | 313 | 9.0 | 16.0 | 0.00 | 0.28 | 0.00 | 51 | 1034.8 |
| 20260507142503 | 35 | 315 | 10.0 | 16.0 | 0.00 | 0.28 | 0.00 | 50 | 1034.8 |
| 20260507142217 | 35 | 313 | 10.0 | 16.0 | 0.00 | 0.28 | 0.00 | 49 | 1034.8 |
| 20260507141503 | 35 | 316 | 10.0 | 16.0 | 0.00 | 0.28 | 0.00 | 49 | 1034.8 |
| 20260507141003 | 34 | 314 | 9.0 | 16.0 | 0.00 | 0.28 | 0.00 | 49 | 1034.9 |
| 20260507140503 | 34 | 314 | 8.0 | 16.0 | 0.00 | 0.28 | 0.00 | 50 | 1034.9 |
| 20260507140003 | 34 | 315 | 7.0 | 12.0 | 0.00 | 0.28 | 0.00 | 51 | 1035.0 |
| 20260507135503 | 34 | 315 | 8.0 | 15.0 | 0.00 | 0.28 | 0.00 | 52 | 1035.1 |
| 20260507135003 | 34 | 316 | 9.0 | 15.0 | 0.00 | 0.28 | 0.00 | 51 | 1035.1 |
| 20260507134503 | 34 | 314 | 8.0 | 13.0 | 0.00 | 0.28 | 0.00 | 51 | 1035.0 |
| 20260507134003 | 33 | 311 | 7.0 | 13.0 | 0.00 | 0.28 | 0.00 | 53 | 1034.9 |
| 20260507133503 | 33 | 311 | 5.0 | 11.0 | 0.00 | 0.28 | 0.00 | 53 | 1034.8 |
| 20260507133003 | 33 | 314 | 3.0 | 8.0 | 0.00 | 0.28 | 0.00 | 54 | 1034.8 |
| 20260507132503 | 33 | 318 | 2.0 | 8.0 | 0.00 | 0.28 | 0.00 | 55 | 1034.7 |
| 20260507132003 | 34 | 316 | 4.0 | 13.0 | 0.00 | 0.28 | 0.00 | 54 | 1034.6 |
| 20260507131503 | 34 | 315 | 7.0 | 14.0 | 0.00 | 0.28 | 0.00 | 50 | 1034.6 |
| 20260507131003 | 34 | 315 | 8.0 | 14.0 | 0.00 | 0.28 | 0.00 | 50 | 1034.5 |
| 20260507130503 | 33 | 314 | 8.0 | 14.0 | 0.00 | 0.28 | 0.00 | 52 | 1034.5 |
| 20260507130220 | 33 | 314 | 8.0 | 14.0 | 0.00 | 0.28 | 0.00 | 51 | 1034.5 |
| 20260507125503 | 32 | 313 | 7.0 | 14.0 | 0.00 | 0.28 | 0.00 | 56 | 1034.4 |
| 20260507125003 | 32 | 312 | 6.0 | 12.0 | 0.00 | 0.28 | 0.00 | 55 | 1034.6 |
| 20260507124718 | 32 | 312 | 6.0 | 12.0 | 0.00 | 0.28 | 0.00 | 54 | 1034.5 |
| 20260507124003 | 31 | 311 | 5.0 | 10.0 | 0.00 | 0.28 | 0.00 | 54 | 1034.4 |
| 20260507123504 | 31 | 308 | 6.0 | 12.0 | 0.00 | 0.28 | 0.00 | 56 | 1034.4 |
| 20260507123003 | 31 | 303 | 6.0 | 12.0 | 0.00 | 0.28 | 0.00 | 57 | 1034.4 |
| 20260507122503 | 30 | 304 | 6.0 | 12.0 | 0.00 | 0.28 | 0.00 | 58 | 1034.4 |
| 20260507122003 | 30 | 309 | 6.0 | 12.0 | 0.00 | 0.28 | 0.00 | 60 | 1034.3 |
| 20260507121721 | 30 | 310 | 7.0 | 12.0 | 0.00 | 0.28 | 0.00 | 59 | 1034.3 |
| 20260507121003 | 28 | 307 | 5.0 | 10.0 | 0.00 | 0.28 | 0.00 | 62 | 1034.3 |
| 20260507120717 | 28 | 312 | 3.0 | 10.0 | 0.00 | 0.28 | 0.00 | 63 | 1034.4 |
| 20260507120004 | 27 | 334 | 2.0 | 4.0 | 0.00 | 0.28 | 0.00 | 65 | 1034.4 |
| 20260507115503 | 27 | 318 | 2.0 | 4.0 | 0.00 | 0.28 | 0.00 | 65 | 1034.4 |
| 20260507115221 | 28 | 309 | 2.0 | 4.0 | 0.00 | 0.28 | 0.00 | 63 | 1034.4 |
| 20260507114503 | 28 | 304 | 3.0 | 7.0 | 0.00 | 0.28 | 0.00 | 61 | 1034.5 |
| 20260507114003 | 29 | 302 | 4.0 | 10.0 | 0.00 | 0.28 | 0.00 | 59 | 1034.4 |
| 20260507113503 | 29 | 306 | 5.0 | 11.0 | 0.00 | 0.28 | 0.00 | 58 | 1034.4 |
| 20260507113218 | 29 | 304 | 5.0 | 11.0 | 0.00 | 0.28 | 0.00 | 59 | 1034.3 |
| 20260507112503 | 29 | 306 | 5.0 | 11.0 | 0.00 | 0.28 | 0.00 | 58 | 1034.3 |
| 20260507112003 | 29 | 302 | 5.0 | 12.0 | 0.00 | 0.28 | 0.00 | 58 | 1034.2 |
| 20260507111717 | 29 | 300 | 5.0 | 12.0 | 0.00 | 0.28 | 0.00 | 59 | 1034.2 |
| 20260507111004 | 29 | 304 | 4.0 | 14.0 | 0.00 | 0.28 | 0.00 | 61 | 1034.0 |
| 20260507110503 | 28 | 299 | 5.0 | 14.0 | 0.00 | 0.28 | 0.00 | 62 | 1034.0 |
| 20260507110003 | 29 | 305 | 5.0 | 10.0 | 0.00 | 0.28 | 0.00 | 62 | 1034.0 |
| 20260507105503 | 28 | 307 | 5.0 | 10.0 | 0.00 | 0.28 | 0.00 | 63 | 1034.0 |
| 20260507105217 | 28 | 300 | 3.0 | 10.0 | 0.00 | 0.28 | 0.00 | 64 | 1034.2 |
| 20260507104720 | 28 | 298 | 2.0 | 10.0 | 0.00 | 0.28 | 0.00 | 63 | 1034.1 |
| 20260507104003 | 29 | 308 | 4.0 | 12.0 | 0.00 | 0.28 | 0.00 | 63 | 1034.1 |
| 20260507103503 | 30 | 311 | 7.0 | 16.0 | 0.00 | 0.28 | 0.00 | 61 | 1034.1 |
| 20260507103003 | 29 | 315 | 8.0 | 16.0 | 0.00 | 0.28 | 0.00 | 60 | 1034.0 |